Content
SEND FEEDBACK

Daily
Averages
Monthly
Summary
United States of America

STATEN ISLAND, NEW YORK


Home > North America > United States > New York
Elevation: 152 feet     Latitude: 40 35N     Longitude: 074 09W

WEATHER
 
SELECT A DAY
Number of Records: 193,900;   Date Range: 1/1/95 - 12/17/14
 
SHARE

PRINT THIS DATA

[ ← Previous Day ]
WEATHER ALMANAC - APRIL 23, 2013
[ Next Day → ]
[ °C ]   °F
Weather ElementAverageHighLow
Temperature45.4 °F52 °F (5:51 pm)41 °F (5:51 am)
Dewpoint37.3 °F41 °F (11:47 am)30.2 °F (6:45 am)
Humidity73.8 %93 % (11:47 am)61 % (2:05 am)
Barometer30.31 in30.46 in (1:51 am)30.12 in (10:51 pm)
Wind Speed12 mph15 mph (1:51 am)
Wind Gust21.9 mph (1:51 am)
Weather ElementAverage
Visibility8.3 mi
Wind DirectionENE (76 °)

Weather ElementTotal
Precipitation0.02 in
Heating Degree Days18.5 (Base 65)
Averaged from 40 records on April 23, 2013
WEATHER CONDITIONS BREAKOUT
WIND DIRECTION BREAKOUT
WEATHER BY HOUR - APRIL 23, 2013
[ °C ]   °F
Local TimeTemperatureDewpointHumidityBarometerVisibilityWind DirectionWind SpeedGust SpeedPrecipitationEventsConditions
1:51 AM44.1 °F32.0 °F63 %30.46 in10.0 miEast (80°)15.0 mph21.9 mphMostly Cloudy
2:05 AM44.6 °F32.0 °F61 %30.46 in10.0 miENE (70°)10.4 mphMostly Cloudy
2:39 AM44.6 °F33.8 °F66 %30.44 in10.0 miENE (70°)9.2 mphMostly Cloudy
2:51 AM44.1 °F33.1 °F65 %30.43 in10.0 miENE (60°)6.9 mphMostly Cloudy
3:51 AM43.0 °F33.1 °F68 %30.42 in10.0 miENE (60°)10.4 mphMostly Cloudy
4:19 AM42.8 °F33.8 °F70 %30.41 in10.0 miNNE (30°)13.8 mphMostly Cloudy
4:48 AM42.8 °F33.8 °F70 %30.40 in10.0 miNE (50°)12.7 mphMostly Cloudy
4:51 AM42.1 °F33.1 °F70 %30.40 in10.0 miNE (40°)13.8 mphMostly Cloudy
5:51 AM41.0 °F30.9 °F67 %30.40 in10.0 miNNE (30°)13.8 mphOvercast
6:45 AM41.0 °F30.2 °F65 %30.39 in10.0 miNNE (30°)13.8 mphOvercast
6:51 AM41.0 °F32.0 °F70 %30.39 in10.0 miNNE (30°)15.0 mphOvercast
7:51 AM42.1 °F32.0 °F67 %30.38 in10.0 miNNE (20°)13.8 mphOvercast
8:51 AM43.0 °F33.1 °F68 %30.37 in10.0 miNorth (10°)12.7 mphOvercast
9:51 AM43.0 °F36.0 °F76 %30.37 in10.0 miNE (40°)11.5 mphOvercast
10:12 AM42.8 °F37.4 °F81 %30.36 in5.0 miNorth (10°)15.0 mph0.00 inRainLight Rain
10:41 AM42.8 °F39.2 °F87 %30.35 in3.0 miNorth (10°)15.0 mph0.00 inRainLight Rain
10:51 AM43.0 °F39.0 °F86 %30.35 in3.0 miNorth (10°)13.8 mph0.00 inRainLight Rain
10:58 AM42.8 °F39.2 °F87 %30.35 in3.0 miNorth (10°)11.5 mph0.00 inRainLight Rain
11:26 AM42.8 °F39.2 °F87 %30.34 in2.5 miNNE (30°)11.5 mph0.00 inRainLight Rain
11:35 AM42.8 °F39.2 °F87 %30.34 in2.0 miNNE (30°)11.5 mph0.00 inRainLight Rain
11:47 AM42.8 °F41.0 °F93 %30.33 in2.0 miNNE (20°)12.7 mph0.01 inRainLight Rain
11:51 AM43.0 °F41.0 °F93 %30.33 in2.0 miNNE (20°)12.7 mph0.01 inRainLight Rain
12:11 PM44.6 °F41.0 °F87 %30.32 in3.0 miNNE (20°)13.8 mph0.00 inRainLight Rain
12:19 PM44.6 °F41.0 °F87 %30.32 in9.0 miNNE (30°)12.7 mph0.00 inOvercast
12:51 PM45.0 °F41.0 °F86 %30.30 in9.0 miNNE (20°)12.7 mph0.00 inOvercast
12:58 PM44.6 °F41.0 °F87 %30.29 in10.0 miNNE (20°)13.8 mphOvercast
1:48 PM46.4 °F39.2 °F76 %30.27 in10.0 miNorth (10°)12.7 mphOvercast
1:51 PM46.9 °F39.9 °F77 %30.26 in10.0 miNorth (10°)13.8 mphOvercast
2:51 PM46.9 °F39.0 °F74 %30.24 in10.0 miNorth (10°)13.8 mphOvercast
3:51 PM48.9 °F39.0 °F69 %30.23 in10.0 miNNE (20°)11.5 mphOvercast
4:51 PM50.0 °F39.9 °F68 %30.23 in10.0 miNorth (360°)10.4 mphOvercast
5:51 PM52.0 °F39.9 °F63 %30.19 in10.0 miNNE (20°)12.7 mphMostly Cloudy
6:19 PM51.8 °F41.0 °F67 %30.19 in10.0 miNorth (10°)9.2 mphMostly Cloudy
6:51 PM52.0 °F39.9 °F63 %30.18 in10.0 miNorth (350°)9.2 mphMostly Cloudy
7:51 PM51.1 °F39.9 °F66 %30.16 in10.0 miNorth (10°)12.7 mphMostly Cloudy
8:51 PM51.1 °F39.9 °F66 %30.13 in10.0 miNNE (20°)12.7 mphMostly Cloudy
9:24 PM51.8 °F39.2 °F62 %30.15 in10.0 miNorth (360°)8.1 mphMostly Cloudy
9:51 PM51.1 °F39.9 °F66 %30.15 in10.0 miNorth (360°)10.4 mphMostly Cloudy
10:51 PM48.9 °F39.0 °F69 %30.12 in10.0 miNW (320°)6.9 mphScattered Clouds
11:51 PM48.0 °F39.0 °F71 %30.12 in10.0 miNNW (330°)6.9 mphPartly Cloudy
Hourly data recorded from KEWR, located miles away from Staten Island, New York







STORIES FROM OUR PARTNERS